Regional Weather Roundup
Issued by NWS Burlington, VT

Home | Current Version | Previous Version | Text Only | Print | Product List | Glossary On
Versions: 1 2 3 4 5 6 7 8 9 10 11 12 13 14 15 16 17 18 19 20 21 22 23 24 25 26 27 28 29 30 31 32 33 34 35 36 37 38 39 40 41 42 43 44 45 46 47 48 49 50
000
ASUS41 KBTV 290430
RWRBTV
VERMONT REGIONAL WEATHER ROUNDUP
NATIONAL WEATHER SERVICE BURLINGTON VT
1200 AM EDT FRI APR 29 2016

NOTE: "FAIR" INDICATES FEW OR NO CLOUDS BELOW 12,000 FEET WITH NO
SIGNIFICANT WEATHER AND/OR OBSTRUCTIONS TO VISIBILITY.

* THESE REPORTS ARE NOT UNDER NWS QUALITY CONTROL AND/OR DO NOT
  REPORT WEATHER SUCH AS PRECIPITATION AND FOG.

VTZ001>019-290500-
_____VERMONT_____


CITY           SKY/WX    TMP DP  RH WIND       PRES   REMARKS
BURLINGTON     FAIR      37  15  40 CALM      30.15F
MONTPELIER     FAIR      31  15  52 NW3       30.17F
MORRISVILLE    FAIR      27  18  69 CALM      30.17S
ST. JOHNSBURY*   N/A     32  18  56 MISG      30.14S
LYNDONVILLE*   FAIR      30  14  52 NW7       30.15S WCI  23
MIDDLEBURY*    FAIR      32  21  65 CALM      30.13R
RUTLAND*       FAIR      34  21  60 SE8       30.12R WCI  27
SPRINGFIELD    FAIR      42  14  32 VRB7      30.12R
HIGHGATE*      FAIR      32  16  52 CALM      30.17S
NEWPORT*       FAIR      28  15  58 CALM      30.16S
BENNINGTON     FAIR      42  25  50 N7        30.07R
SUTTON*          N/A     28 N/A N/A MISG        N/A
GALLUP MILLS*    N/A     28 N/A N/A MISG        N/A
UNION VILLAGE*   N/A     34 N/A N/A MISG        N/A
MT. MANSFIELD*   N/A     21 N/A N/A SW12        N/A  WCI   9

_____LAKE CHAMPLAIN_____


CITY           SKY/WX    TMP DP  RH WIND       PRES   REMARKS
COLCHESTER RF*   N/A     37  30  75 NW10        N/A  WCI  30
DIAMOND ISL*     N/A     39  21  48 NW14        N/A  WCI  31

$$

NYZ007-026>031-035-052-083-087-290500-
_____NORTHERN NEW YORK_____


CITY           SKY/WX    TMP DP  RH WIND       PRES   REMARKS
PLATTSBURGH    PTCLDY    29  21  72 CALM      30.17S
SARANAC LAKE   CLOUDY    28  16  60 NE3       30.08F
MASSENA        PTCLDY    33  20  58 E3        30.16S
OGDENSBURG*    CLEAR     34  27  75 CALM      30.13S
POTSDAM*       CLEAR    -15 -24  64 SE3       30.13
STARK FALLS*     N/A     34 N/A N/A E5          N/A  WCI  30
WATERTOWN      CLOUDY    38  20  48 NE12      30.09F WCI  30
FT DRUM        PTCLDY    38  19  46 E7        30.08F
ALBANY         MOCLDY    41  18  39 N14       30.08S
GLENS FALLS    PTCLDY    37  20  50 N3        30.11S

$$
NHZ002-005-011-290500-
_____NEW HAMPSHIRE_____


CITY           SKY/WX    TMP DP  RH WIND       PRES   REMARKS
LEBANON        PTCLDY    36  19  50 N5        30.13R
KEENE          CLOUDY    46  27  46 NE5       30.10R
MT WASHINGTON  MOCLDY    18   3  53 SW12        N/A  WCI   5
PLYMOUTH       FAIR      30  26  86 CALM      30.14R
WHITEFIELD     CLEAR     30  17  58 CALM      30.14R

$$

_____REGIONAL QUEBEC LOCATIONS_____


CITY           SKY/WX    TMP DP  RH WIND       PRES   REMARKS
MONTREAL       PTCLDY    36  18  48 E6        30.18S WCI  31
QUEBEC CITY    CLEAR     30   7  37 N5        30.20S WCI  25
SHERBROOKE     CLEAR     28  16  59 E3        30.17S

_____REGIONAL ONTARIO LOCATIONS_____


CITY           SKY/WX    TMP DP  RH WIND       PRES   REMARKS
OTTAWA         CLEAR     36  18  48 E6        30.15S WCI  31

______KEY______
VSB  - VISIBILITY IN MILES
WCI  - WIND CHILL INDEX
HX   - HEAT INDEX
$$
NNNN



USA.gov is the U.S. government's official web portal to all federal, state and local government web resources and services.